Tracking 31027 objects as of 19-Jul-2025
HD Live streaming from Space Station
objects crossing your sky now

COSMOS 1741 DEB *

Track COSMOS 1741 DEB * now!
10-day predictions


NORAD ID: 17843
Int'l Code: 1986-030D
Perigee: 724.7 km
Apogee: 745.6 km
Inclination: 74.0 °
Period: 99.4 minutes
Semi major axis: 7106 km
RCS: 0.0078 m2 (small)
Launch date: April 17, 1986
Source: Commonwealth of Independent States (former USSR) (CIS)
Launch site: PLESETSK MISSILE AND SPACE COMPLEX (PKMTR)

Note: This is SATELLITE DEBRIS
Your satellite tracking list
SL-8 DEB
Track 1 satellite(s)




NASA's NSSDC Master Catalog

Two Line Element Set (TLE):
1 17843U 86030D   25199.56871198  .00001064  00000-0  28568-3 0  9994
2 17843  74.0305 137.8747 0014681 308.2010  51.7827 14.49273503 56701
Source of the keplerian elements: AFSPC